Weather Roundup
Issued by NWS

Home | Current Version | Previous Version | Text Only | Print | Product List | Glossary On
Versions: 1 2 3 4 5 6 7 8 9 10 11 12 13 14 15 16 17 18 19 20 21 22 23 24 25 26 27 28 29 30 31 32 33 34 35 36 37 38 39 40 41 42 43 44 45 46 47 48 49 50
689
NZUS93 KARX 010110
HRRWXR

CURRENT HOURLY OBSERVATIONS ACROSS
MUCH OF THE UPPER MISSISSIPPI VALLEY
NATIONAL WEATHER SERVICE LA CROSSE WI
800 PM CDT FRI SEP 30 2016


...SOUTHEAST MINNESOTA...


CITY           SKY/WX    TMP DP  RH WIND       PRES   REMARKS
ROCHESTER      CLOUDY    63  56  78 E5        30.21S
ROCHESTER/MAYO   N/A     66  53  61 NE5       30.20S
WINONA         CLOUDY    63  55  77 CALM      30.20F
AUSTIN         CLOUDY    63  55  77 CALM      30.19S
ALBERT LEA     CLOUDY    64  54  68 E3        30.20S
DODGE CENTER   CLOUDY    64  52  63 NE5       30.20F
PRESTON        CLOUDY    61  54  77 E3        30.21S
OWATONNA       CLOUDY    64  52  63 NE3       30.20S
FARIBAULT      CLOUDY    61  55  82 CALM      30.21S
$$

...ELSEWHERE IN MINNESOTA...


CITY           SKY/WX    TMP DP  RH WIND       PRES   REMARKS
MINNEAPOLIS    PTCLDY    63  51  65 NE7       30.21S
INTNL FALLS    CLEAR     45  44  97 CALM      30.30F
DULUTH         CLOUDY    52  51  97 E10       30.30F FOG
RED WING       MOCLDY    63  52  67 NE3       30.18F
REDWOOD FALLS  CLEAR     63  47  55 E6        30.20S
MANKATO        CLEAR     62  52  69 NE7       30.21S
WORTHINGTON    CLEAR     56  48  74 E6        30.20F
FAIRMONT       CLOUDY    65  53  65 N3        30.20S
$$

...SOUTHWEST WISCONSIN...


CITY           SKY/WX    TMP DP  RH WIND       PRES   REMARKS
LA CROSSE      CLOUDY    65  57  75 VRB5      30.19F
PRAIRIE DU CHI CLOUDY    61  56  81 N6        30.16F
BOSCOBEL       CLOUDY    62  58  86 NE3       30.16F
LONE ROCK      LGT RAIN  60  58  92 N6        30.17F FOG
PLATTEVILLE    CLOUDY    59  59 100 N7        30.16S
FORT MC COY    CLOUDY    60  56  88 NE3       30.19F
CAMP DOUGLAS   CLOUDY    59  57  92 NE1       30.18F
MAUSTON-NEW LI NOT AVBL
VIROQUA        CLOUDY    58  57  95 NE5       30.18F
WIS DELLS      CLOUDY    58  56  94 NE6       30.17R FOG
$$

...ELSEWHERE IN WISCONSIN...


CITY           SKY/WX    TMP DP  RH WIND       PRES   REMARKS
MILWAUKEE      CLOUDY    62  58  86 NE13      30.12F
MADISON        DRIZZLE   59  58  96 NE7       30.15S FOG
GREEN BAY      CLOUDY    63  59  87 NE17      30.19R
EAU CLAIRE     CLOUDY    64  53  67 NE5       30.20F
BLACK RVR FLS  CLOUDY    61  61 100 CALM      30.19F
MEDFORD        CLOUDY    59  51  75 NE5       30.22F
WAUSAU         CLOUDY    62  51  67 N5        30.20F
WIS RAPIDS     CLOUDY    62  54  74 NE6       30.20F
MARSHFIELD     CLOUDY    63  54  72 NE5       30.20F
RICE LAKE      MOCLDY    60  53  75 N10       30.25S
$$

...NORTHEAST IOWA...


CITY           SKY/WX    TMP DP  RH WIND       PRES   REMARKS
WATERLOO       CLOUDY    61  56  83 NE10      30.16F
DUBUQUE        CLOUDY    58  58 100 NE8       30.15S
DECORAH        CLOUDY    59  57  94 E6        30.18F
MASON CITY     CLOUDY    62  54  74 CALM      30.20S
CHARLES CITY   CLOUDY    63  57  82 E5        30.19F
OELWEIN        CLOUDY    59  57  94 N8        30.17F
$$

...ELSEWHERE IN IOWA...


CITY           SKY/WX    TMP DP  RH WIND       PRES   REMARKS
DES MOINES     CLOUDY    64  55  72 NE5       30.16S
IOWA CITY      CLOUDY    62  57  83 N6        30.15S
FORT DODGE     CLOUDY    63  54  72 CALM      30.19S
MARSHALLTOWN   CLOUDY    61  56  83 NE9       30.16F
CEDAR RAPIDS   CLOUDY    61  58  90 N9        30.14F
$$

...NORTHERN ILLINOIS...


CITY           SKY/WX    TMP DP  RH WIND       PRES   REMARKS
CHICAGO-OHARE  LGT RAIN  62  58  86 NE10      30.07S
CHICAGO-MIDWAY CLOUDY    64  57  78 E14       30.06F
MOLINE         CLOUDY    62  59  90 N5        30.10F
ROCKFORD       LGT RAIN  61  59  93 NE13      30.12S FOG
PEORIA         LGT RAIN  62  62 100 N5        30.06S
$$

NOTE: "FAIR" INDICATES FEW OR NO CLOUDS BELOW 12,000 FEET WITH NO
SIGNIFICANT WEATHER AND/OR OBSTRUCTIONS TO VISIBILITY. WIND
SPEEDS ARE IN MILES-PER-HOUR.




USA.gov is the U.S. government's official web portal to all federal, state and local government web resources and services.